User: anonymous   Login
Location: Bacea
(45.9500°N, 22.6667°E)
Time: 16:12:59
(UTC+00:00)
Language:

Gbstr 26 Del rocket - Orbit

View from above orbital plane
View from above orbital plane
View from above satellite
View from above satellite

Ground track
Ground track

The orbit data is extracted from the following two-line orbital elements,

1 25876U 99041E   22018.85631339  .00000789  00000-0  17297-3 0  9995
2 25876  51.7657 178.6419 0530312 237.1163 117.7674 14.04722102150196
Epoch (UTC): 18 January 2022 20:33:05
Eccentricity: 0.0530312
inclination: 51.7657°
perigee height: 493 km
apogee height: 1262 km
right ascension of ascending node: 178.6419°
argument of perigee: 237.1163°
revolutions per day: 14.04722102
mean anomaly at epoch: 117.7674°
orbit number at epoch: 15019

The dashed part of the orbit path shows where the satellite is in the earth's shadow,  

DLR